EDT,Max TemperatureF,Mean TemperatureF,Min TemperatureF,Max Dew PointF,MeanDew PointF,Min DewpointF,Max Humidity, Mean Humidity, Min Humidity, Max Sea Level PressureIn, Mean Sea Level PressureIn, Min Sea Level PressureIn, Max VisibilityMiles, Mean VisibilityMiles, Min VisibilityMiles, Max Wind SpeedMPH, Mean Wind SpeedMPH, Max Gust SpeedMPH,PrecipitationIn, CloudCover, Events, WindDirDegrees
2012-10-1,86,78,69,74,71,67,100,90,69,29.85,29.80,29.75,10,4,1,16,5,24,0.06,6,Rain,87
2012-10-2,85,80,74,74,72,69,94,86,65,29.98,29.83,29.76,10,8,1,16,6,21,0.44,5,Rain,193
2012-10-3,82,77,72,73,70,65,94,85,58,30.20,30.07,29.99,10,9,7,7,2,9,0.02,3,Rain,220
2012-10-4,80,74,67,70,67,66,93,84,67,30.27,30.22,30.17,10,9,3,8,2,10,0.13,5,Rain,311
2012-10-5,83,75,66,67,64,61,93,80,47,30.19,30.12,30.04,10,8,2,8,1,12,0.00,0,,45
2012-10-6,87,75,63,67,63,57,100,82,36,30.03,29.98,29.88,10,5,0,15,2,16,0.00,1,Fog,262
2012-10-7,86,73,60,70,65,55,100,80,48,30.08,29.97,29.93,10,6,0,16,5,24,0.00,2,Fog,273
2012-10-8,60,56,52,54,52,50,93,84,72,30.14,30.10,30.05,10,9,1,15,9,18,0.61,8,Rain,27
2012-10-9,65,57,48,50,49,47,96,81,56,30.17,30.13,30.09,10,9,4,13,5,17,0.00,6,,10
2012-10-10,77,61,45,57,50,44,93,82,46,30.15,30.11,30.03,10,8,2,15,4,20,0.00,3,,284
2012-10-11,74,62,50,54,49,44,93,69,38,30.29,30.23,30.14,10,10,8,9,3,14,0.00,0,,55
2012-10-12,82,66,50,59,54,49,96,70,42,30.27,30.21,30.15,10,9,6,9,2,13,0.00,0,,40
2012-10-13,74,65,55,55,52,47,86,69,49,30.40,30.33,30.27,10,10,10,13,5,17,0.00,0,,50
2012-10-14,82,69,55,66,58,50,90,72,49,30.28,30.18,30.04,10,10,10,9,3,14,T,3,,93
2012-10-15,81,69,57,67,62,51,100,78,54,30.04,29.90,29.78,10,8,1,20,6,28,0.00,3,,252
2012-10-16,73,61,48,51,46,41,93,62,34,29.99,29.93,29.88,10,10,10,12,5,17,0.00,0,,48
2012-10-17,73,62,50,53,50,43,93,75,35,30.02,29.95,29.91,10,9,6,9,1,13,0.00,0,,115
2012-10-18,80,67,53,66,60,52,93,82,58,29.90,29.85,29.79,10,9,6,12,3,25,0.00,2,,170
2012-10-19,78,65,51,66,54,36,93,69,22,29.86,29.80,29.76,10,8,1,14,5,18,0.44,3,Rain,248
2012-10-20,75,61,46,49,45,41,86,64,33,29.95,29.87,29.83,10,10,10,16,3,22,0.00,0,,277
2012-10-21,73,61,49,50,45,41,89,61,35,30.16,30.09,29.96,10,10,10,13,4,17,0.00,0,,43
2012-10-22,77,61,45,54,48,43,93,71,36,30.25,30.19,30.14,10,10,9,8,1,12,0.00,0,,58
2012-10-23,80,63,46,56,48,44,93,68,31,30.22,30.16,30.11,10,9,7,8,1,10,0.00,0,,62
2012-10-24,81,67,52,60,55,51,100,81,42,30.20,30.15,30.08,10,7,0,8,1,10,0.00,4,Fog,64
2012-10-25,83,70,57,63,60,56,93,75,47,30.12,30.08,30.04,10,9,2,13,4,17,0.00,2,,89
2012-10-26,78,70,62,62,58,53,93,72,42,30.03,29.95,29.84,10,10,10,18,10,23,0.00,0,,37
2012-10-27,72,69,65,61,58,52,81,70,57,29.81,29.71,29.63,10,10,9,20,13,29,0.00,4,,11
2012-10-28,76,67,57,51,49,46,72,54,38,29.68,29.64,29.59,10,10,10,15,9,24,0.00,2,,342
2012-10-29,64,55,46,44,34,29,62,48,34,29.70,29.64,29.55,10,10,10,23,12,32,0.00,3,,307
2012-10-30,61,53,44,32,28,25,50,40,26,29.73,29.61,29.55,10,10,8,23,12,32,0.00,4,,269
2012-10-31,67,55,42,30,24,16,53,36,14,29.84,29.78,29.73,10,10,10,24,10,33,0.00,0,,259